Tracking 25710 objects as of 4-Jul-2022
HD Live streaming from Space Station
objects crossing your sky now

ONEWEB-0127

Track ONEWEB-0127 now!
10-day predictions
ONEWEB-0127 is classified as:


NORAD ID: 47273
Int'l Code: 2020-100R
Perigee: 1,219.3 km
Apogee: 1,222.4 km
Inclination: 87.9 °
Period: 109.7 minutes
Semi major axis: 7591 km
RCS: Unknown
Launch date: December 18, 2020
Source: United Kingdom (UK)
Launch site: VOSTOCHNY COSMODROME (VOSTO)
aabbcc
Your satellite tracking list
Your tracking list is empty




NASA's NSSDC Master Catalog

Two Line Element Set (TLE):
1 47273U 20100R   22184.77259096  .00000190  00000-0  49184-3 0  9997
2 47273  87.8904 277.6088 0002087 100.5875 259.5489 13.12443012 75265
Source of the keplerian elements: AFSPC